Regional Weather Roundup
Issued by NWS Charleston, WV

Home | Current Version | Previous Version | Graphics & Text | Print | Product List | Glossary On
Versions: 1 2 3 4 5 6 7 8 9 10 11 12 13 14 15 16 17 18 19 20 21 22 23 24 25 26 27 28 29 30 31 32 33 34 35 36 37 38 39 40 41 42 43 44 45 46 47 48 49 50
403
ASUS41 KRLX 171410
RWRRLX
West Virginia Regional Weather Roundup
National Weather Service Charleston WV
1000 AM EDT TUE OCT 17 2017

Note: "fair" indicates few or no clouds below 12,000 feet with no
significant weather and/or obstructions to visibility.

WVZ003-171500-
Northern Panhandle of West Virginia

CITY           SKY/WX    TMP DP  RH WIND       PRES   REMARKS
WHEELING       SUNNY     45  38  76 SW3       30.37S
$$

WVZ009-171500-
Northwest West Virginia

CITY           SKY/WX    TMP DP  RH WIND       PRES   REMARKS
PARKERSBURG    SUNNY     44  42  93 CALM      30.42S
$$

WVZ006-171500-
Western West Virginia

CITY           SKY/WX    TMP DP  RH WIND       PRES   REMARKS
HUNTINGTON     SUNNY     46  43  89 CALM      30.40R FOG
$$

WVZ015-171500-
West Central West Virginia

CITY           SKY/WX    TMP DP  RH WIND       PRES   REMARKS
CHARLESTON     FOG       43  42  97 CALM      30.41R VSB 3/4
$$

WVZ022-031-171500-
North Central West Virginia

CITY           SKY/WX    TMP DP  RH WIND       PRES   REMARKS
CLARKSBURG     PTSUNNY   41  39  93 CALM      30.40R
MORGANTOWN     SUNNY     43  37  79 S3        30.39S
$$

WVZ025-035-042-045-171500-
Southern West Virginia

CITY           SKY/WX    TMP DP  RH WIND       PRES   REMARKS
BECKLEY        SUNNY     47  39  74 W3        30.39R
LOGAN          FOG       43  43 100 CALM      30.39S VSB 1/4
BLUEFIELD      SUNNY     45  35  68 CALM      30.39R
LEWISBURG      MOSUNNY   38  37  99 CALM      30.40S
$$

WVZ047-171500-
Northern Mountains of West Virginia

CITY           SKY/WX    TMP DP  RH WIND       PRES   REMARKS
ELKINS         FOG       37  35  92 SE3       30.41S VSB 1
$$

WVZ052-171500-
Eastern Panhandle of West Virginia

CITY           SKY/WX    TMP DP  RH WIND       PRES   REMARKS
MARTINSBURG    SUNNY     50  36  58 CALM      30.39R
PETERSBURG     SUNNY     41  38  92 CALM      30.41S
$$




USA.gov is the U.S. government's official web portal to all federal, state and local government web resources and services.